"Pseudo-MPEC" for P10Y3QI

Created 2020 Mar 30 5:07:08 UT using Find_Orb

Click here for an explanation of pseudo-MPECs

 
 Astrometry: 
     P10Y3QI  C2020 03 23HLMd/?LU?'ktCf=yj?NF;udAstrometry=XuLgutredacted;j!!F51
     P10Y3QI  C2020 03 23.dAclick[?7There(ODnFw9eL_ZG$RYyXGNSk*TSnforO4h@ChIrF51
     P10Y3QI  C2020 03 23fqrd07jJLkN$J'\K/ip9xJb'8PH[rK-_BY#-qG1C89!@7BO[lCYpF51
     P10Y3QI  C2020 03 25.21876 11 29 49.21 +05 20 59.6    ~3P67       VNEOCPI52
     P10Y3QI  C2020 03 25.22461 11 29 48.89 +05 21 07.5    ~3P67       VNEOCPI52
     P10Y3QI  C2020 03 25.23631 11 29 48.24 +05 21 24.0    ~3P67       VNEOCPI52
     P10Y3QI KC2020 03 30+:c5D-g,Fd?IK6J\3uhYoUxaGAth';+%IreI6+s;uwQc:LQsuW(tH21
     P10Y3QI KC2020 03 30r)oF!P5\k@nl']fkxhP%(VVU,h7`AOaB%v%KpAs7yC\x_%(da8t=H21
     P10Y3QI KC2020 03 30DbT$explanation#OTdr3:Q^0r2LNIq`XVe`tLxoCC1RGh'U,SiFH21

Station data:
(F51) Pan-STARRS 1, Haleakala  (N20.707235 W156.255910)  US/Hawaii.
   Observers N. Primak, A. Schultz, S. Watters, J. Thiel, T. Goggia. Measurer
   PS1 Science Consortium. 1.8-m Ritchey-Chrétien + CCD.
(H21) Astronomical Research Observatory, Westfield  (N39.483057 W87.968270)
   US/Illinois. 0.76-m f/3.0 astrograph + CCD.
(I52) Steward Observatory, Mt. Lemmon Station  (N32.442547 W110.788920)
   US/Arizona.  Observers T. A. Pruyne, B. M. Africano, E. J. Christensen, G.
   A. Farneth, D. C. Fuls, A. R. Gibbs, A. D. Grauer, H. Gröller, J. A.
   Johnson, R. A. Kowalski, S. M. Larson, G. J. Leonard, D. Rankin, R. L.
   Seaman, F. C. Shelly. 1.0-m reflector + CCD.

Orbital elements:  P10Y3QI
   Perihelion 2019 Mar 12.512598 +/- 8.15 TT = 12:18:08 (JD 2458555.012598)
Epoch 2020 Mar 30.0 TT = JDT 2458938.5   Earth MOID: 0.6941   AutoNEOCP
M 153.62809461 +/- 4.4              (J2000 ecliptic)
n   0.40060793 +/- 0.00346          Peri.  206.99563 +/- 3.6
a   1.82245307 +/- 0.0105           Node   175.76302 +/- 0.017
e   0.0739920 +/- 0.00547           Incl.   23.14210 +/- 0.56
P   2.46/898.62d           H 20.1   G  0.15   U  8.9  
q 1.68760609 +/- 0.00289    Q 1.95730005 +/- 0.0209
From 9 observations 2020 Mar. 23-30; mean residual 0".21
Residuals in arcseconds: 
200323 F51  .00   .15+    200325 I52  .00   .22+    200330 H21  .21+  .60-    
200323 F51  .02-  .02-    200325 I52  .04+  .12-    200330 H21  .01+  .16+    
200323 F51  .02+  .14-    200325 I52  .04-  .09-    200330 H21  .22-  .44+    

Ephemerides (geocentric):
Date (UTC) HH   RA              Dec         delta   r     elong  mag " sig PA
---- -- -- --  -------------   -----------  ------ ------ -----  --- ---- ---
2020 03 30 05  11 25 44.020   +07 14 15.62  .97838 1.9451 159.3 22.1 .116  28
2020 03 30 06  11 25 42.111   +07 15 10.23  .97856 1.9451 159.3 22.1 .125  35
2020 03 30 07  11 25 40.205   +07 16 04.81  .97874 1.9452 159.2 22.1 .135  40
2020 03 30 08  11 25 38.301   +07 16 59.35  .97892 1.9452 159.2 22.1 .147  45
2020 03 30 09  11 25 36.400   +07 17 53.85  .97910 1.9452 159.1 22.1 .160  50
2020 03 30 10  11 25 34.501   +07 18 48.31  .97928 1.9452 159.1 22.1 .174  53
2020 03 30 11  11 25 32.605   +07 19 42.73  .97946 1.9452 159.0 22.1 .189  56
2020 03 30 12  11 25 30.711   +07 20 37.12  .97964 1.9452 159.0 22.1 .205  59
2020 03 30 13  11 25 28.820   +07 21 31.47  .97982 1.9453 158.9 22.1 .221  62
2020 03 30 14  11 25 26.931   +07 22 25.77  .98000 1.9453 158.8 22.1 .238  64
2020 03 30 15  11 25 25.045   +07 23 20.04  .98018 1.9453 158.8 22.2 .255  66
2020 03 30 16  11 25 23.161   +07 24 14.27  .98036 1.9453 158.7 22.2 .273  67
2020 03 30 17  11 25 21.280   +07 25 08.46  .98055 1.9453 158.7 22.2 .291  69
2020 03 30 18  11 25 19.402   +07 26 02.62  .98073 1.9453 158.6 22.2 .310  70
2020 03 30 19  11 25 17.526   +07 26 56.73  .98091 1.9453 158.6 22.2 .329  71
2020 03 30 20  11 25 15.652   +07 27 50.80  .98110 1.9454 158.5 22.2 .348  73
2020 03 30 21  11 25 13.781   +07 28 44.84  .98128 1.9454 158.5 22.2 .368  74
2020 03 30 22  11 25 11.913   +07 29 38.84  .98147 1.9454 158.4 22.2 .388  75
2020 03 30 23  11 25 10.047   +07 30 32.79  .98165 1.9454 158.4 22.2 .409  75
2020 03 31 00  11 25 08.184   +07 31 26.71  .98184 1.9454 158.3 22.2 .430  76
2020 03 31 01  11 25 06.324   +07 32 20.59  .98202 1.9454 158.2 22.2 .451  77
2020 03 31 02  11 25 04.466   +07 33 14.43  .98221 1.9454 158.2 22.2 .473  78
2020 03 31 03  11 25 02.610   +07 34 08.23  .98240 1.9455 158.1 22.2 .495  78
2020 03 31 04  11 25 00.758   +07 35 01.98  .98259 1.9455 158.1 22.2 .517  79
2020 03 31 05  11 24 58.907   +07 35 55.70  .98277 1.9455 158.0 22.2 .540  80
2020 03 31 06  11 24 57.060   +07 36 49.38  .98296 1.9455 158.0 22.2 .563  80
2020 03 31 07  11 24 55.215   +07 37 43.02  .98315 1.9455 157.9 22.2 .586  81
2020 03 31 08  11 24 53.373   +07 38 36.62  .98334 1.9455 157.9 22.2 .610  81
2020 03 31 09  11 24 51.533   +07 39 30.18  .98353 1.9456 157.8 22.2 .634  82
2020 03 31 10  11 24 49.696   +07 40 23.70  .98372 1.9456 157.7 22.2 .658  82
2020 03 31 11  11 24 47.862   +07 41 17.18  .98391 1.9456 157.7 22.2 .683  82
2020 03 31 12  11 24 46.030   +07 42 10.62  .98410 1.9456 157.6 22.2 .708  83
2020 03 31 13  11 24 44.201   +07 43 04.02  .98429 1.9456 157.6 22.2 .734  83
2020 03 31 14  11 24 42.374   +07 43 57.38  .98448 1.9456 157.5 22.2 .759  84
2020 03 31 15  11 24 40.550   +07 44 50.70  .98468 1.9456 157.5 22.2 .785  84
2020 03 31 16  11 24 38.729   +07 45 43.98  .98487 1.9457 157.4 22.2 .812  84
2020 03 31 17  11 24 36.911   +07 46 37.22  .98506 1.9457 157.4 22.2 .838  85
2020 03 31 18  11 24 35.095   +07 47 30.41  .98526 1.9457 157.3 22.2 .866  85
2020 03 31 19  11 24 33.282   +07 48 23.57  .98545 1.9457 157.3 22.2 .893  85
2020 03 31 20  11 24 31.471   +07 49 16.69  .98564 1.9457 157.2 22.2 .921  86
2020 03 31 21  11 24 29.663   +07 50 09.76  .98584 1.9457 157.1 22.2 .949  86
2020 03 31 22  11 24 27.858   +07 51 02.80  .98603 1.9457 157.1 22.2 .977  86
2020 03 31 23  11 24 26.056   +07 51 55.79  .98623 1.9458 157.0 22.2 1.01  86
2020 04 01 00  11 24 24.256   +07 52 48.74  .98643 1.9458 157.0 22.2 1.04  87
2020 04 01 01  11 24 22.459   +07 53 41.65  .98662 1.9458 156.9 22.2 1.06  87
2020 04 01 02  11 24 20.665   +07 54 34.52  .98682 1.9458 156.9 22.2 1.09  87
2020 04 01 03  11 24 18.873   +07 55 27.35  .98702 1.9458 156.8 22.2 1.12  87
2020 04 01 04  11 24 17.084   +07 56 20.14  .98722 1.9458 156.8 22.2 1.15  88